BEIDOU-2 IGSO-6

Last updated on Tue Sep 22 2026 00:03:13 GMT+0000 (Coordinated Universal Time)

1 41434U 16021A 26263.83710821 -.00000138 00000+0 00000+0 0 9996 2 41434 60.3665 37.0962 0061966 228.2006 132.3017 1.00281277 38443
UTC large
Height (km)
Speed (km/s)
/
Latitude / Longitude
Inclination (degrees)
Orbital Period (minutes)
Azimuth
Elevation
Range (km)
Doppler Factor

Next 0 passes for location: London (51.5072 / 0.1276)

No passes found over London.
BEIDOU-2 IGSO-6